Flag for U.S.A. Weather past 2 weeks in Pensacola, Florida, U.S.A.

Now
81 °F

Sunny.


Feels Like: 86 °F
Forecast: 72 / 86 °F
Wind: 7 mph from Southwest

Location: Pensacola Regional Airport

Current Time: Jul 23, 2014 at 4:55:53 PM

Latest Report: Jul 23, 2014 at 3:53 PM


Visibility: 10 mi

Pressure: 30.01 "Hg

Humidity: 77%

Dew point: 73 °F

Location of PensacolaLocation

Historic Weather in Pensacola — Graph

°F

Pensacola temperature yesterday

Maximum temperature yesterday: 84 °F (at 11:53 AM)
Minimum temperature yesterday: 75 °F (at 2:53 AM)
Average temperature yesterday: 78 °F

Past Weeks' High & Low Weather Summary

 TemperatureHumidityPressure
High91 °F (Jul 9, 1:53 PM)100% (Jul 18, 6:53 PM)30.15 "Hg (Jul 18, 6:53 PM)
Low66 °F (Jul 17, 5:53 AM)39% (Jul 16, 4:53 PM)29.88 "Hg (Jul 16, 2:53 AM)
Average79 °F80%30.03 "Hg
* Reported Jul 8 2:53 PM — Jul 23 2:53 PM, Pensacola, Weather by CustomWeather, © 2014

Note: Actual official high and low records may vary slightly from our data, if they occured in-between our weather recording intervals... More about our weather records

Advertising

Pensacola weather history for previous 24 hours

 ConditionsComfort  
Time TempWeatherWind HumidityBarometerVisibility
2:53 PM
Jul 23
75 °FRain. Cloudy.12 mph96%30.06 "Hg7 mi
1:53 PM81 °FScattered clouds.9 mph74%30.07 "Hg10 mi
12:53 PM83 °FSunny.9 mph65%30.07 "Hg10 mi
11:53 AM84 °FScattered clouds.8 mph65%30.06 "Hg10 mi
10:53 AM83 °FScattered clouds.7 mph70%30.06 "Hg10 mi
9:53 AM81 °FScattered clouds.No wind77%30.07 "Hg10 mi
8:53 AM79 °FBroken clouds.No wind88%30.07 "Hg10 mi
7:53 AM78 °FSunny.No wind93%30.08 "Hg10 mi
6:53 AM75 °FScattered clouds.No wind96%30.06 "Hg10 mi
5:53 AM74 °FClear.5 mph97%30.03 "Hg9 mi
4:53 AM73 °FPassing clouds.No wind100%30.02 "Hg8 mi
3:53 AM75 °FClear.5 mph96%30.02 "Hg10 mi
2:53 AM76 °FPartly cloudy.No wind97%30.02 "Hg10 mi
12:53 AM75 °FClear.No wind94%30.04 "Hg10 mi
11:53 PM
Jul 22
75 °FClear.No wind94%30.04 "Hg10 mi
10:53 PM77 °FClear.No wind88%30.05 "Hg10 mi
9:53 PM77 °FPassing clouds.No wind88%30.06 "Hg10 mi
8:53 PM78 °FClear.3 mph84%30.04 "Hg10 mi
7:53 PM79 °FClear.5 mph79%30.03 "Hg10 mi
6:53 PM82 °FSunny.No wind67%30.02 "Hg10 mi
Weather by CustomWeather, © 2014

See weather overviewHow to use our weather pages